User: anonymous   Login
Location: Six Mile Lake
(44.9000°N, 79.7170°W)
Time: 15:44:05
(UTC-04:00)
Language:

XW-2A - Orbit

View from above orbital plane
View from above orbital plane
View from above satellite
View from above satellite

Ground track
Ground track

The orbit data is extracted from the following two-line orbital elements,

1 40903U 15049E   22177.47388117  .00019061  00000-0  29684-3 0  9992
2 40903  97.1789 236.0210 0011306  91.4083 324.0399 15.53854799380668
Epoch (UTC): 26 June 2022 11:22:23
Eccentricity: 0.0011306
inclination: 97.1789°
perigee height: 398 km
apogee height: 413 km
right ascension of ascending node: 236.0210°
argument of perigee: 91.4083°
revolutions per day: 15.53854799
mean anomaly at epoch: 324.0399°
orbit number at epoch: 38066

The dashed part of the orbit path shows where the satellite is in the earth's shadow,  

DLR